Regional Weather Roundup
Issued by NWS

Home | Current Version | Previous Version | Text Only | Print | Product List | Glossary On
Versions: 1 2 3 4 5 6 7 8 9 10 11 12 13 14 15 16 17 18 19 20 21 22 23 24 25 26 27 28 29 30 31 32 33 34 35 36 37 38 39 40 41 42 43 44 45 46 47 48 49 50
000
ASUS45 KREV 292110
RWRNV
NEVADA REGIONAL WEATHER ROUNDUP
NATIONAL WEATHER SERVICE RENO NV
200 PM PDT FRI APR 29 2016

NOTE: "FAIR" INDICATES FEW OR NO CLOUDS BELOW 12,000 FEET WITH NO
SIGNIFICANT WEATHER AND/OR OBSTRUCTIONS TO VISIBILITY.

NVZ001-003-004-292200-
WESTERN NEVADA

CITY           SKY/WX    TMP DP  RH WIND       PRES   REMARKS
RENO           PTSUNNY   67  23  19 W16G22    29.90F
CARSON CITY    FAIR      63  25  23 SW12G18   29.94F
MINDEN         FAIR      61  25  25 W15G25    29.95F
SLIDE MTN        N/A     37  21  52 W25         N/A
PYRAMID LAKE     N/A     57 N/A N/A NE3         N/A
FALLON         CLOUDY    66  24  20 W9        29.88F
LOVELOCK       PTSUNNY   66  21  18 W10       29.88F
HAWTHORNE      SUNNY     66  25  20 N7G16     29.90F
$$

NVZ002-CAZ072-073-292200-
NORTHERN AND CENTRAL SIERRA

CITY           SKY/WX    TMP DP  RH WIND       PRES   REMARKS
S. LAKE TAHOE  CLOUDY    52  30  43 SW9       30.00F
TRUCKEE        PTSUNNY   55  27  33 SW15G22   30.00F
SQUAW VLY 8000   N/A     43  30  61 W8          N/A
SUSANVILLE     PTSUNNY   66  27  22 W12G20    29.91F
BLUE CANYON    PTSUNNY   52  37  56 SW12G20   30.04F
MAMMOTH LAKES  FAIR      59  16  18 W16G23    29.99F
BRIDGEPORT     FAIR      57  23  26 W16G28    29.98S
$$

NVZ030-031-036-292200-
NORTHERN NEVADA

CITY           SKY/WX    TMP DP  RH WIND       PRES   REMARKS
ELKO           LGT RAIN  44  37  76 CALM      29.92F
WINNEMUCCA     CLOUDY    58  29  33 NW8       29.88F
WENDOVER       MOSUNNY   55  36  47 NE7       29.86F
$$

NVZ035-037-292200-
CENTRAL NEVADA

CITY           SKY/WX    TMP DP  RH WIND       PRES   REMARKS
ELY            CLOUDY    48  33  56 N5        29.92F
EUREKA           N/A     45  36  70 E9        29.92F
$$

NVZ013-014-292200-
SOUTH CENTRAL NEVADA

CITY           SKY/WX    TMP DP  RH WIND       PRES   REMARKS
TONOPAH        MOSUNNY   61  25  25 NW18G25   29.93F
$$

NVZ017-020-022-292200-
SOUTHERN NEVADA

CITY           SKY/WX    TMP DP  RH WIND       PRES   REMARKS
LAS VEGAS      PTSUNNY   73  36  25 VRB5      29.81F
N. LAS VEGAS   PTSUNNY   72  37  28 W9G24     29.83F
NELLIS AFB     PTSUNNY   73  38  28 S9        29.82F
HENDERSON      CLOUDY    72  38  29 N7        29.86F
MERCURY        MOSUNNY   71  32  23 SW10G18   29.86F
$$



USA.gov is the U.S. government's official web portal to all federal, state and local government web resources and services.